[[{"header":{"parameterUnit":"m.s-1","parameterCategory":1,"la1":30.2991,"la2":30.254,"lo1":-89.0895,"lo2":-89.0444,"dy":0.0017,"dx":0.0017,"nx":28,"ny":28,"refTime":"2025-04-03T21:00:00:Z","depth":0,"parameterNumber":2,"parameterNumberName":"U-component_of_WINDS"},"data":[0,0,0,0,0,0,0,0,0,0,0,0,0,0,0,0,0,0,0,0,0,0,0,0,0,0,0,0,0,0,0,0,0,0,0,0,0,0,0,0,0,0,0,0,0,0,0,0,0,0,0,0,0,0,0,0,0,0,-4.5078,-4.5079,0,-4.519,-4.5192,-4.5193,-4.5195,-4.5193,-4.5192,-4.5191,-4.5305,-4.5309,-4.5313,0,0,0,0,0,0,0,0,0,0,0,0,0,-4.4865,-4.4869,-4.5078,-4.5079,-4.5081,-4.519,-4.5192,-4.5193,-4.5195,-4.5193,-4.5192,-4.519,-4.5303,-4.5309,-4.5314,0,0,0,0,0,0,0,0,0,0,0,0,0,-4.4966,-4.487,-4.5078,-4.5095,-4.5097,-4.519,-4.5192,-4.5194,-4.5195,-4.5193,-4.5191,-4.5189,-4.5302,-4.5308,-4.5315,-4.5397,0,0,-4.5335,-4.5337,0,0,0,0,0,0,0,0,-4.496,-4.4973,-4.5091,-4.5094,-4.5097,-4.5176,-4.5159,-4.5262,-4.5196,-4.5158,-4.5191,-4.5188,-4.5264,-4.5273,-4.5299,-4.5402,-4.5407,-4.5335,-4.5339,-4.5342,-4.5344,0,0,0,0,0,0,0,-4.4953,-4.4969,-4.5122,-4.5093,-4.5096,-4.5097,-4.5109,-4.5178,-4.5221,-4.5161,-4.5162,-4.5175,-4.5265,-4.5293,-4.5302,-4.5409,-4.5335,-4.5341,-4.5345,-4.5347,-4.5586,-4.5588,0,0,0,0,0,0,-4.4943,-4.4963,-4.5119,-4.5126,-4.5022,-4.5103,-4.5116,-4.5153,-4.5221,-4.5229,-4.5177,-4.5175,-4.5283,-4.5294,-4.5306,-4.5406,-4.5342,-4.5348,-4.5352,-4.5583,-4.5586,-4.5589,0,0,0,0,0,0,-4.4938,-4.4956,-4.5114,-4.5044,-4.5065,-4.5108,-4.515,-4.5156,-4.5184,-4.5232,-4.524,-4.5197,-4.5281,-4.5297,-4.5374,-4.541,-4.5351,-4.5357,-4.5581,-4.5584,-4.5588,-4.5607,0,0,0,0,0,0,-4.4932,-4.4955,-4.4986,-4.5045,-4.5068,-4.5181,-4.5152,-4.516,-4.5195,-4.5194,-4.5253,-4.5261,-4.5281,-4.5365,-4.5381,-4.5418,-4.5362,-4.5577,-4.5582,-4.5586,-4.5604,-4.5611,-4.5618,0,0,0,0,0,-4.4924,-4.4987,-4.4988,-4.5007,-4.5109,-4.5183,-4.5196,-4.5218,-4.5198,-4.523,-4.5261,-4.5259,-4.5404,-4.5373,-4.5391,-4.543,-4.5575,-4.5581,-4.5586,-4.56,-4.561,-4.5617,0,0,0,0,0,0,-4.4931,-4.4995,-4.4997,-4.5081,-4.5126,-4.5183,-4.5224,-4.5227,-4.5279,-4.5275,-4.53,-4.5313,-4.539,-4.5419,-4.5382,-4.5514,-4.5487,-4.5497,-4.5492,-4.5501,-4.5508,-4.5498,-4.5367,0,0,0,0,0,-4.4942,-4.4997,-4.5051,-4.512,-4.5143,-4.518,-4.5213,-4.5226,-4.5274,-4.5293,-4.533,-4.5377,-4.5433,-4.5469,-4.5523,-4.5609,-4.5621,-4.5645,-4.5652,-4.5658,-4.5665,-4.5711,-4.5722,-4.5607,-4.5607,-4.5607,0,0,-4.4966,-4.5008,-4.5041,-4.5122,-4.5159,-4.5215,-4.5196,-4.5256,-4.5298,-4.5302,-4.5377,-4.5406,-4.546,-4.5542,-4.558,-4.5568,-4.57,-4.5665,-4.5669,-4.5673,-4.5718,-4.5729,-4.5739,-4.561,-4.561,-4.5609,0,0,-4.5037,-4.5075,-4.5136,-4.5174,-4.5231,-4.5255,-4.527,-4.5327,-4.5346,-4.5423,-4.5427,-4.5478,-4.5574,-4.5612,-4.5644,-4.5732,-4.5731,-4.5749,-4.5784,-4.583,-4.5839,-4.5847,-4.5877,-4.5888,-4.5757,-4.5757,-4.5757,0,-4.5059,-4.5144,-4.5168,-4.5228,-4.5263,-4.5271,-4.5333,-4.5369,-4.544,-4.5464,-4.545,-4.5571,-4.5608,-4.5699,-4.572,-4.5747,-4.5764,-4.5741,-4.5836,-4.5844,-4.5852,-4.5881,-4.5892,-4.5758,-4.5758,-4.5758,-4.5758,0,-4.5168,-4.5227,-4.527,-4.5338,-4.5379,-4.544,-4.5472,-4.5511,-4.5521,-4.5547,-4.5625,-4.567,-4.5733,-4.5756,-4.5767,-4.5849,-4.5839,-4.5831,-4.5804,-4.5864,-4.5892,-4.5903,-4.576,-4.576,-4.5759,-4.5759,0,0,-4.5244,-4.5326,-4.5341,-4.5372,-4.5436,-4.5482,-4.5544,-4.5606,-4.5638,-4.5688,-4.5739,-4.5822,-4.5814,-4.5851,-4.5866,-4.5906,-4.5971,-4.5892,-4.5894,-4.5904,-4.6063,-4.6068,-4.608,-4.5973,-4.5975,-4.5977,-4.6058,0,-4.532,-4.543,-4.5453,-4.5548,-4.5602,-4.5611,-4.5665,-4.571,-4.5737,-4.5787,-4.5817,-4.5874,-4.586,-4.5882,-4.5922,-4.5955,-4.6003,-4.5949,-4.602,-4.6022,-4.6003,-4.6095,-4.6099,-4.6174,-4.6069,-4.6071,-4.6072,0,-4.5424,-4.5476,-4.5575,-4.5632,-4.5656,-4.5704,-4.5763,-4.5811,-4.5863,-4.5879,-4.5921,-4.5932,-4.5997,-4.5969,-4.6058,-4.6021,-4.6052,-4.6073,-4.6076,-4.6081,-4.6049,-4.61,-4.6198,-4.6208,-4.609,-4.6088,-4.6087,0,-4.5467,-4.5562,-4.5634,-4.5661,-4.5729,-4.5763,-4.5793,-4.5843,-4.5879,-4.5931,-4.5955,-4.6014,-4.6046,-4.6092,-4.6119,-4.6096,-4.6205,-4.618,-4.622,-4.6219,-4.624,-4.6238,-4.6342,-4.6264,-4.6264,-4.6264,-4.6263,0,-4.5548,-4.5608,-4.5654,-4.5698,-4.5766,-4.5794,-4.586,-4.589,-4.5935,-4.5984,-4.5997,-4.6044,-4.6078,-4.6129,-4.6151,-4.6221,-4.6236,-4.6251,-4.6255,-4.6248,-4.6246,-4.6267,-4.6261,-4.6267,-4.6266,-4.6265,-4.6265,0,-4.5607,-4.564,-4.5719,-4.5778,-4.5794,-4.5841,-4.5892,-4.5935,-4.5963,-4.6026,-4.6042,-4.6086,-4.6147,-4.6179,-4.6256,-4.6271,-4.6349,-4.6352,-4.6331,-4.6332,-4.637,-4.6365,-4.6489,-4.6506,-4.6418,-4.6419,-4.642,0,-4.5655,-4.5702,-4.5766,-4.58,-4.5831,-4.5887,-4.5924,-4.5954,-4.5992,-4.6055,-4.609,-4.6152,-4.6203,-4.6301,-4.6339,-4.6398,-4.6401,-4.6441,-4.641,-4.6401,-4.64,-4.6396,-4.64,-4.6445,-4.6446,-4.6447,-4.6447,0,-4.5738,-4.5752,-4.5805,-4.5864,-4.5908,-4.5956,-4.6003,-4.6031,-4.6069,-4.6111,-4.6174,-4.6214,-4.6293,-4.6354,-4.6416,-4.6447,-4.6453,-4.6457,-4.6469,-4.6461,-4.6446,-4.6453,-4.6343,-4.6453,-4.6453,-4.6452,-4.6452,-4.6452,-4.5791,-4.5833,-4.5884,-4.5943,-4.5982,-4.6027,-4.607,-4.6103,-4.6156,-4.6222,-4.6238,-4.6304,-4.6355,-4.6439,-4.6473,-4.6525,-4.6517,-4.6535,-4.6539,-4.6542,-4.6543,-4.644,-4.6537,-4.6537,-4.6537,-4.6537,-4.6536,0,-4.5872,-4.5907,-4.596,-4.6026,-4.6073,-4.6076,-4.6129,-4.6167,-4.6225,-4.6273,-4.6323,-4.6396,-4.6456,-4.65,-4.6561,-4.6594,-4.6599,-4.6609,-4.6606,-4.6613,-4.6547,-4.653,-4.6605,-4.6605,-4.6605,-4.6605,-4.6605,-4.6604,-4.592,-4.599,-4.6011,-4.6101,-4.6135,-4.62,-4.6229,-4.627,-4.6308,-4.6389,-4.6439,-4.6467,-4.6513,-4.6578,-4.6633,-4.6645,-4.6666,-4.6676,-4.6687,-4.6625,-4.6617,-4.661,-4.6594,-4.6681,-4.6681,-4.6748,-4.6749,-4.6749]},{"header":{"parameterUnit":"m.s-1","parameterCategory":1,"la1":30.2991,"la2":30.254,"lo1":-89.0895,"lo2":-89.0444,"dy":0.0017,"dx":0.0017,"nx":28,"ny":28,"refTime":"2025-04-03T21:00:00:Z","depth":0,"parameterNumber":3,"parameterNumberName":"V-component_of_WINDS"},"data":[0,0,0,0,0,0,0,0,0,0,0,0,0,0,0,0,0,0,0,0,0,0,0,0,0,0,0,0,0,0,0,0,0,0,0,0,0,0,0,0,0,0,0,0,0,0,0,0,0,0,0,0,0,0,0,0,0,0,3.5282,3.5283,0,3.539,3.5391,3.5392,3.541,3.5409,3.5408,3.5407,3.5518,3.5521,3.5525,0,0,0,0,0,0,0,0,0,0,0,0,0,3.5093,3.5096,3.5282,3.5283,3.5284,3.539,3.5391,3.5392,3.541,3.5409,3.5408,3.5407,3.5516,3.5521,3.5525,0,0,0,0,0,0,0,0,0,0,0,0,0,3.5185,3.5097,3.5281,3.5306,3.5309,3.5389,3.5391,3.5393,3.541,3.5409,3.5408,3.5406,3.5515,3.552,3.5526,3.5589,0,0,3.5543,3.5546,0,0,0,0,0,0,0,0,3.518,3.5192,3.5301,3.5304,3.5308,3.5385,3.5365,3.5459,3.5411,3.5372,3.5407,3.5406,3.5475,3.5484,3.5507,3.5594,3.5599,3.5544,3.5547,3.555,3.5551,0,0,0,0,0,0,0,3.5174,3.5188,3.5324,3.5303,3.5307,3.5312,3.5324,3.5383,3.543,3.5375,3.5377,3.5389,3.5476,3.5501,3.551,3.5601,3.5544,3.5549,3.5552,3.5555,3.5749,3.5751,0,0,0,0,0,0,3.5163,3.5182,3.5321,3.5328,3.5239,3.5317,3.533,3.5362,3.5429,3.5438,3.539,3.539,3.5492,3.5503,3.5513,3.5594,3.555,3.5555,3.5558,3.5747,3.5749,3.5751,0,0,0,0,0,0,3.5158,3.5175,3.5317,3.5255,3.5274,3.5321,3.5357,3.5365,3.539,3.5441,3.5449,3.5407,3.5492,3.5505,3.5571,3.5598,3.5558,3.5563,3.5745,3.5748,3.575,3.5755,0,0,0,0,0,0,3.5153,3.5173,3.5197,3.5256,3.5277,3.5372,3.5359,3.5368,3.5399,3.54,3.5459,3.5467,3.5492,3.5562,3.5577,3.5606,3.5567,3.5743,3.5746,3.575,3.5753,3.5757,3.5762,0,0,0,0,0,3.5146,3.5193,3.5198,3.5215,3.5308,3.5373,3.5386,3.5413,3.5401,3.5427,3.546,3.5465,3.5593,3.5569,3.5585,3.5616,3.5741,3.5745,3.5749,3.5751,3.5757,3.5761,0,0,0,0,0,0,3.5135,3.5201,3.5207,3.5275,3.5318,3.5376,3.5408,3.5417,3.5465,3.5463,3.5495,3.5508,3.5573,3.5601,3.5573,3.5683,3.5666,3.5674,3.5662,3.5668,3.5672,3.5665,3.5572,0,0,0,0,0,3.5141,3.5188,3.5243,3.5298,3.5319,3.536,3.5389,3.5407,3.5453,3.5472,3.551,3.5555,3.5606,3.5638,3.5687,3.5757,3.5771,3.5786,3.5791,3.5794,3.58,3.5842,3.5851,3.5764,3.5764,3.5764,0,0,3.5153,3.5195,3.5222,3.5297,3.5332,3.5382,3.5375,3.5427,3.5465,3.548,3.5545,3.5574,3.5627,3.5696,3.5728,3.5721,3.5828,3.5799,3.5801,3.5806,3.5847,3.5855,3.5863,3.5767,3.5766,3.5766,0,0,3.52,3.5235,3.5286,3.5323,3.5378,3.5405,3.5417,3.5474,3.5495,3.5561,3.5574,3.5619,3.5705,3.5743,3.5773,3.5838,3.5846,3.5853,3.5877,3.5917,3.5924,3.5931,3.5956,3.5965,3.5859,3.5859,3.5859,0,3.5208,3.5283,3.5311,3.5363,3.5397,3.5414,3.5466,3.55,3.5568,3.5591,3.5583,3.5693,3.5729,3.5808,3.5825,3.5848,3.5864,3.5847,3.5921,3.5928,3.5934,3.5959,3.5968,3.586,3.586,3.586,3.586,0,3.5291,3.5343,3.5377,3.5444,3.5481,3.5533,3.557,3.5604,3.5619,3.5648,3.5716,3.5761,3.5821,3.584,3.5854,3.5923,3.5917,3.5914,3.5899,3.5942,3.5966,3.5976,3.5861,3.5861,3.586,3.586,0,0,3.5334,3.5417,3.543,3.5462,3.5524,3.5566,3.5619,3.5679,3.5709,3.5755,3.5803,3.5876,3.5875,3.5909,3.5928,3.5964,3.6016,3.5957,3.5959,3.5968,3.6097,3.61,3.611,3.6021,3.6023,3.6024,3.6093,0,3.539,3.5487,3.5515,3.5597,3.5647,3.5665,3.5712,3.5757,3.5785,3.5832,3.5864,3.5916,3.5909,3.5931,3.5967,3.6002,3.6042,3.5997,3.6067,3.6069,3.6055,3.6123,3.6126,3.6189,3.6103,3.6104,3.6105,0,3.5469,3.5519,3.5606,3.5666,3.5688,3.5729,3.5788,3.5832,3.5883,3.5902,3.5942,3.5959,3.6017,3.5998,3.608,3.6049,3.6079,3.6101,3.6104,3.6113,3.6091,3.6135,3.6209,3.6219,3.612,3.6119,3.6118,0,3.5495,3.5584,3.5648,3.5674,3.5745,3.5774,3.5805,3.5855,3.589,3.5941,3.5964,3.6021,3.6052,3.6096,3.6129,3.6111,3.6209,3.6192,3.6228,3.6227,3.6248,3.6247,3.633,3.6265,3.6265,3.6264,3.6264,0,3.5556,3.5609,3.5661,3.5701,3.5762,3.5794,3.5854,3.5885,3.593,3.5978,3.5996,3.604,3.6079,3.6128,3.6154,3.622,3.6233,3.6251,3.6257,3.625,3.6249,3.6272,3.6269,3.6267,3.6266,3.6266,3.6265,0,3.5596,3.5632,3.5704,3.5765,3.5782,3.5825,3.5878,3.5918,3.5948,3.6008,3.6023,3.6071,3.613,3.6167,3.6241,3.6259,3.6332,3.6336,3.6315,3.6319,3.6354,3.6351,3.6456,3.6473,3.6394,3.6395,3.6395,0,3.5633,3.5675,3.5742,3.5775,3.5806,3.5859,3.5896,3.5929,3.5967,3.603,3.6063,3.6124,3.6175,3.627,3.6311,3.637,3.6376,3.6409,3.6385,3.6378,3.638,3.6378,3.6384,3.6414,3.6414,3.6415,3.6415,0,3.5697,3.5714,3.5765,3.5824,3.5868,3.5915,3.5963,3.5989,3.6031,3.6073,3.6134,3.6174,3.6252,3.6313,3.6376,3.6408,3.642,3.6423,3.6435,3.6429,3.6416,3.6426,3.6329,3.642,3.642,3.6419,3.6419,3.6419,3.5739,3.5778,3.5832,3.5889,3.5929,3.5974,3.6016,3.6052,3.6104,3.617,3.6187,3.6253,3.6306,3.6391,3.6425,3.6478,3.6473,3.6489,3.6494,3.6498,3.65,3.6406,3.6489,3.6489,3.6489,3.6489,3.6489,0,3.5806,3.5842,3.5895,3.5962,3.6008,3.6015,3.6069,3.6107,3.6164,3.6213,3.6263,3.6336,3.6396,3.6443,3.6505,3.6538,3.6545,3.6554,3.6553,3.6561,3.65,3.6485,3.6547,3.6547,3.6547,3.6547,3.6547,3.6547,3.5847,3.5914,3.5938,3.6026,3.6062,3.6126,3.6157,3.6199,3.6239,3.6319,3.6369,3.6399,3.6448,3.6515,3.6571,3.6583,3.6606,3.6614,3.6628,3.657,3.6564,3.6558,3.6544,3.6618,3.6618,3.6684,3.6685,3.6685]}]]